Location: Azul
(36.7830°S, 59.8500°W)
Time: 09:10:51
(UTC-03:00)

ISS - Pass Details

Date: 09 December 2019
Orbit: 411 x 421 km, 51.6° (Epoch: 11 December)

Event Time Altitude Azimuth Distance (km) Brightness Sun altitude
Exits shadow 01:52:39 17° 191° (S) 1,172 -0.9 -28.7°
Drops below altitude 10° 01:54:24 10° 161° (SSE) 1,529 0.0 -28.6°
Sets 01:57:00 0° 141° (SE) 2,397 1.1 -28.5°
